Tracking 27122 objects as of 25-Mar-2023
HD Live streaming from Space Station
objects crossing your sky now

NOAA 16 DEB

Track NOAA 16 DEB now!
10-day predictions


NORAD ID: 41360
Int'l Code: 2000-055JD
Perigee: 820.1 km
Apogee: 864.6 km
Inclination: 98.9 °
Period: 101.6 minutes
Semi major axis: 7213 km
RCS: Unknown
Launch date: September 21, 2000
Source: United States (US)
Launch site: AIR FORCE WESTERN TEST RANGE (AFWTR)

Note: This is SATELLITE DEBRIS
Your satellite tracking list
Your tracking list is empty




NASA's NSSDC Master Catalog

Two Line Element Set (TLE):
1 41360U 00055JD  23083.96660413  .00007973  00000-0  39605-2 0  9996
2 41360  98.8655 181.2099 0030869 177.8704 182.2607 14.17086809369151
Source of the keplerian elements: AFSPC